Location: Rometta
(44.2000°N, 10.0500°E)
Time: 21:58:04
(UTC+00:00)

CZ-4B R/B - Pass Details

Date: 20 January 2021
Orbit: 809 x 882 km, 99.1° (Epoch: 03 March)

Event Time Altitude Azimuth Distance (km) Brightness Sun altitude
Rises 16:35:03 0° 158° (SSE) 3,398 6.4 -4.3°
Reaches altitude 10° 16:37:24 10° 157° (SSE) 2,477 5.7 -4.7°
Maximum altitude 16:42:53 75° 73° (ENE) 899 3.2 -5.6°
Drops below altitude 10° 16:48:31 10° 349° (N) 2,536 5.6 -6.5°
Sets 16:50:56 0° 348° (NNW) 3,484 6.3 -6.9°
